TimeEDT,TemperatureF,Dew PointF,Humidity,Sea Level PressureIn,VisibilityMPH,Wind Direction,Wind SpeedMPH,Gust SpeedMPH,PrecipitationIn,Events,Conditions,WindDirDegrees,DateUTC
12:15 AM,60.3,58.1,93,29.99,10.0,Calm,Calm,-,N/A,,Overcast,0,2013-10-16 04:15:00
12:35 AM,61.0,58.1,90,29.98,10.0,Calm,Calm,-,N/A,,Scattered Clouds,0,2013-10-16 04:35:00
12:55 AM,60.3,57.4,90,29.98,10.0,Calm,Calm,-,N/A,,Scattered Clouds,0,2013-10-16 04:55:00
1:15 AM,60.1,57.9,93,29.98,10.0,Calm,Calm,-,N/A,,Mostly Cloudy,0,2013-10-16 05:15:00
1:35 AM,60.8,58.1,91,29.98,10.0,Calm,Calm,-,N/A,,Mostly Cloudy,0,2013-10-16 05:35:00
1:55 AM,60.4,58.1,92,29.98,10.0,West,3.5,-,N/A,,Overcast,260,2013-10-16 05:55:00
2:15 AM,60.8,58.8,93,29.98,10.0,South,3.5,-,N/A,Rain,Light Rain,180,2013-10-16 06:15:00
2:35 AM,61.7,59.2,91,29.98,10.0,SSE,6.9,-,N/A,,Overcast,160,2013-10-16 06:35:00
2:55 AM,62.1,59.4,91,29.97,7.0,South,5.8,-,N/A,Rain,Rain,180,2013-10-16 06:55:00
3:15 AM,63.3,59.9,89,29.97,7.0,SSW,6.9,-,N/A,Rain,Rain,200,2013-10-16 07:15:00
3:35 AM,62.1,59.9,93,29.96,10.0,South,8.1,-,N/A,Rain,Rain,170,2013-10-16 07:35:00
3:55 AM,61.7,59.9,94,29.96,7.0,SSE,6.9,-,N/A,,Drizzle,160,2013-10-16 07:55:00
4:15 AM,61.7,60.1,94,29.94,10.0,SSE,5.8,-,N/A,,Light Drizzle,150,2013-10-16 08:15:00
4:35 AM,61.7,60.1,94,29.94,10.0,Calm,Calm,-,N/A,,Overcast,0,2013-10-16 08:35:00
4:55 AM,61.7,59.9,94,29.95,10.0,Calm,Calm,-,N/A,,Overcast,0,2013-10-16 08:55:00
5:15 AM,61.5,59.9,94,29.95,10.0,Calm,Calm,-,N/A,Rain,Light Rain,0,2013-10-16 09:15:00
5:35 AM,61.3,59.9,95,29.96,7.0,South,3.5,-,N/A,Rain,Light Rain,190,2013-10-16 09:35:00
5:55 AM,61.5,60.1,95,29.97,7.0,Calm,Calm,-,N/A,Rain,Rain,0,2013-10-16 09:55:00
6:15 AM,61.7,60.1,94,29.96,7.0,South,3.5,-,N/A,Rain,Light Rain,180,2013-10-16 10:15:00
6:35 AM,61.3,59.9,95,29.96,10.0,South,5.8,-,N/A,,Light Drizzle,170,2013-10-16 10:35:00
6:55 AM,61.3,60.1,96,29.95,10.0,SSE,6.9,-,N/A,,Overcast,160,2013-10-16 10:55:00
7:15 AM,61.2,59.9,96,29.95,10.0,SSE,6.9,-,N/A,,Overcast,160,2013-10-16 11:15:00
7:35 AM,61.0,59.9,96,29.96,10.0,South,4.6,-,N/A,,Overcast,170,2013-10-16 11:35:00
7:55 AM,61.0,59.9,96,29.96,10.0,South,4.6,-,N/A,,Overcast,170,2013-10-16 11:55:00
8:15 AM,61.2,59.9,96,29.96,10.0,Calm,Calm,-,N/A,,Overcast,0,2013-10-16 12:15:00
8:35 AM,61.7,60.1,94,29.97,10.0,South,4.6,-,N/A,,Overcast,180,2013-10-16 12:35:00
8:55 AM,61.9,60.6,96,29.97,10.0,Calm,Calm,-,N/A,,Overcast,0,2013-10-16 12:55:00
9:35 AM,63.0,61.2,94,29.96,10.0,South,3.5,-,N/A,,Mostly Cloudy,190,2013-10-16 13:35:00
9:55 AM,63.1,61.0,93,29.97,10.0,Calm,Calm,-,N/A,,Overcast,0,2013-10-16 13:55:00
10:15 AM,63.5,61.3,93,29.96,10.0,South,4.6,-,N/A,Rain,Light Rain,190,2013-10-16 14:15:00
10:35 AM,63.7,61.5,93,29.96,10.0,South,3.5,-,N/A,,Overcast,180,2013-10-16 14:35:00
10:55 AM,63.9,61.3,91,29.96,10.0,SSW,3.5,-,N/A,Rain,Light Rain,210,2013-10-16 14:55:00
11:15 AM,63.5,61.3,93,29.96,5.0,South,4.6,-,N/A,Rain,Rain,190,2013-10-16 15:15:00
11:35 AM,63.5,61.7,94,29.96,7.0,SSW,4.6,-,N/A,Rain,Rain,200,2013-10-16 15:35:00
11:55 AM,63.3,61.2,93,29.96,5.0,SSW,5.8,-,N/A,Rain,Rain,210,2013-10-16 15:55:00
12:15 PM,63.3,61.5,94,29.96,5.0,South,6.9,-,N/A,Rain,Rain,190,2013-10-16 16:15:00
12:35 PM,63.5,61.5,93,29.95,7.0,SSW,6.9,-,N/A,Rain,Light Rain,200,2013-10-16 16:35:00
12:55 PM,63.0,61.0,93,29.95,10.0,South,4.6,-,N/A,,Drizzle,180,2013-10-16 16:55:00
1:15 PM,63.0,61.0,93,29.94,10.0,SSW,4.6,-,N/A,Rain,Rain,200,2013-10-16 17:15:00
1:35 PM,63.0,61.0,93,29.94,10.0,SSW,6.9,-,N/A,,Light Drizzle,200,2013-10-16 17:35:00
1:55 PM,62.8,60.8,93,29.94,10.0,South,6.9,-,N/A,,Light Drizzle,190,2013-10-16 17:55:00
2:15 PM,63.0,61.0,93,29.93,7.0,SSW,5.8,-,N/A,,Light Drizzle,200,2013-10-16 18:15:00
2:35 PM,63.1,61.2,93,29.92,10.0,SSW,4.6,-,N/A,,Overcast,200,2013-10-16 18:35:00
2:55 PM,63.0,60.8,93,29.92,10.0,South,5.8,-,N/A,,Overcast,190,2013-10-16 18:55:00
3:15 PM,62.8,60.8,93,29.92,10.0,SSW,5.8,-,N/A,,Overcast,200,2013-10-16 19:15:00
3:35 PM,62.8,60.8,93,29.92,10.0,SSW,8.1,-,N/A,,Overcast,200,2013-10-16 19:35:00
3:55 PM,62.8,60.8,93,29.92,7.0,SSW,6.9,-,N/A,,Overcast,200,2013-10-16 19:55:00
4:15 PM,62.6,60.8,94,29.92,7.0,SSW,6.9,-,N/A,,Overcast,210,2013-10-16 20:15:00
4:35 PM,62.6,60.8,94,29.92,7.0,SW,5.8,-,N/A,,Overcast,220,2013-10-16 20:35:00
4:55 PM,62.8,61.0,94,29.91,4.0,SSW,3.5,-,N/A,,Overcast,200,2013-10-16 20:55:00
5:15 PM,62.6,61.0,94,29.91,4.0,SSW,5.8,-,N/A,,Overcast,200,2013-10-16 21:15:00
5:35 PM,62.6,61.0,94,29.92,4.0,SSW,4.6,-,N/A,,Overcast,200,2013-10-16 21:35:00
5:55 PM,62.6,61.0,94,29.91,4.0,South,6.9,-,N/A,,Overcast,180,2013-10-16 21:55:00
6:15 PM,62.6,60.8,94,29.91,5.0,SSW,4.6,-,N/A,,Overcast,200,2013-10-16 22:15:00
6:35 PM,62.6,60.8,94,29.91,7.0,South,3.5,-,N/A,,Overcast,190,2013-10-16 22:35:00
6:55 PM,62.6,61.0,94,29.92,7.0,SSW,4.6,-,N/A,,Overcast,200,2013-10-16 22:55:00
7:15 PM,62.6,61.0,94,29.92,7.0,South,4.6,-,N/A,,Overcast,190,2013-10-16 23:15:00
7:35 PM,62.6,60.8,94,29.93,10.0,South,4.6,-,N/A,,Overcast,190,2013-10-16 23:35:00
7:55 PM,62.6,60.8,94,29.93,10.0,South,3.5,-,N/A,,Overcast,190,2013-10-16 23:55:00
8:15 PM,62.6,60.8,94,29.93,10.0,South,4.6,-,N/A,,Overcast,190,2013-10-17 00:15:00
8:35 PM,62.6,60.8,94,29.93,5.0,SW,3.5,-,N/A,Rain,Rain,220,2013-10-17 00:35:00
8:55 PM,62.6,60.8,94,29.94,4.0,SSW,3.5,-,N/A,,Heavy Drizzle,200,2013-10-17 00:55:00
9:15 PM,62.2,60.8,95,29.94,5.0,SSW,4.6,-,N/A,Rain,Rain,200,2013-10-17 01:15:00
9:35 PM,62.2,60.8,95,29.94,7.0,SSW,3.5,-,N/A,,Light Drizzle,210,2013-10-17 01:35:00
9:55 PM,62.2,60.8,95,29.95,10.0,SW,4.6,-,N/A,,Overcast,230,2013-10-17 01:55:00
10:15 PM,62.2,60.8,95,29.95,10.0,SW,5.8,-,N/A,,Light Drizzle,230,2013-10-17 02:15:00
10:35 PM,62.1,60.3,94,29.95,10.0,SW,4.6,-,N/A,Rain,Rain,220,2013-10-17 02:35:00
10:55 PM,61.9,59.9,93,29.95,10.0,SW,4.6,-,N/A,,Light Drizzle,220,2013-10-17 02:55:00
11:15 PM,61.7,59.9,94,29.94,10.0,SSW,3.5,-,N/A,,Mostly Cloudy,210,2013-10-17 03:15:00
11:35 PM,61.0,59.0,93,29.94,10.0,SW,4.6,-,N/A,,Overcast,220,2013-10-17 03:35:00
11:55 PM,60.4,58.1,92,29.94,10.0,Calm,Calm,-,N/A,,Overcast,0,2013-10-17 03:55:00